This is the latest recevied weather packets stored in our database for station/object NO3U. If no packets are shown the sender has not sent any weather packets the latest 10 day(s).
| Time | Temp. | Humidity | Pressure | Rain* | Wind** | Luminosity | Snow |
|---|---|---|---|---|---|---|---|
| 1777935006 | 21.67° C | 54% | 1007.1 hPa | 0 mm | - | 48 W/m² | - |
| 1777934703 | 21.67° C | 54% | 1007.1 hPa | 0 mm | - | 79 W/m² | - |
| 1777934400 | 21.67° C | 55% | 1007.1 hPa | 0 mm | - | 85 W/m² | - |
| 1777934096 | 21.67° C | 53% | 1007 hPa | 0 mm | - | 47 W/m² | - |
| 1777933791 | 21.67° C | 52% | 1006.9 hPa | 0 mm | - | 55 W/m² | - |
| 1777933489 | 21.67° C | 52% | 1007.2 hPa | 0 mm | - | 58 W/m² | - |
| 1777933187 | 21.67° C | 52% | 1007.3 hPa | 0 mm | - | 44 W/m² | - |
| 1777932884 | 21.67° C | 52% | 1007.2 hPa | 0 mm | - | 40 W/m² | - |
| 1777932581 | 21.67° C | 52% | 1007 hPa | 0 mm | - | 43 W/m² | - |
| 1777932277 | 21.67° C | 51% | 1007 hPa | 0 mm | - | 24 W/m² | - |
| 1777931974 | 21.67° C | 50% | 1007 hPa | 0 mm | - | 54 W/m² | - |
| 1777931671 | 22.22° C | 50% | 1007.1 hPa | 0 mm | - | 104 W/m² | - |
| 1777931367 | 22.78° C | 47% | 1007 hPa | 0 mm | - | 234 W/m² | - |
| 1777931064 | 23.33° C | 49% | 1006.8 hPa | 0 mm | - | 148 W/m² | - |
| 1777930760 | 23.33° C | 46% | 1007 hPa | 0 mm | - | 333 W/m² | - |
| 1777930456 | 23.33° C | 47% | 1007 hPa | 0 mm | - | 355 W/m² | - |
| 1777930154 | 23.33° C | 47% | 1006.8 hPa | 0 mm | - | 352 W/m² | - |
| 1777929849 | 23.33° C | 46% | 1006.7 hPa | 0 mm | - | 356 W/m² | - |
| 1777929548 | 23.33° C | 46% | 1006.9 hPa | 0 mm | - | 379 W/m² | - |
| 1777929244 | 22.78° C | 47% | 1006.9 hPa | 0 mm | - | 389 W/m² | - |
| 1777928941 | 23.33° C | 46% | 1006.8 hPa | 0 mm | - | 396 W/m² | - |
| 1777928638 | 22.78° C | 47% | 1006.9 hPa | 0 mm | - | 106 W/m² | - |
| 1777928335 | 22.78° C | 46% | 1006.9 hPa | 0 mm | - | 170 W/m² | - |
| 1777928033 | 23.33° C | 47% | 1007 hPa | 0 mm | - | 424 W/m² | - |
| 1777927731 | 22.78° C | 47% | 1007 hPa | 0 mm | - | 484 W/m² | - |
* Rain latest hour (hover to see other rain measurements)
** Current wind speed in m/s (hover to see current wind gust speed)